SCP
0 0 0 0 0 0 0 0 0 0 0 0 0 0 0 0 0 0 0 0 0 -0 -0 -0 -0 0 0 0 0 0 0 0 0 0 0 0 0 0
0 0 0 0 0 0 0 0 0 0 0 0 0 0 0 0 0 0 0 -0 -0 -0 0 0 -0 0 0 -0 -0 -0 0 0 0 0 0 0 0 0
0 0 0 0 0 0 0 0 0 0 0 0 0 0 0 0 0 0 0 0 0 -0 0 0 0 0 0 0 0 0 0 0 0 0 0 0 0 0
0 0 0 0 0 0 0 0 0 0 0 0 0 0 -0 0 0 0 0 0 0 0 -0 0 0 0 0 0 0 0 0 0 0 0 0 0 0 0
0 0 0 0 0 0 0 0 0 0 0 0 0 0 0 0 0 0 0 0 0 0 0 0 0 0 -0 -0 -0 -0 0 0 0 0 0 0 0 0
-0 0 0 0 0 0 0 0 0 0 0 0 0 0 0 0 0 0 0 0 0 0 0 -0 -0 -0 -0 0 0 0 0 -0 -0 0 0 0 0 0
-0 -0 -0 -0 0 0 0 0 0 0 0 0 0 0 0 0 0 0 0 0 0 0 0 0 0 0 0 -0 0 -0 0 0 0 -0 -0 -0 -0 -0
-0 -0 0 -0 0 0 -0 0 0 0 1 1 0 0 0 0 0 0 0 0 0 0 0 0 0 -0 0 0 0 0 0 0 0 0 0 0 0 0
0 0 0 0 0 0 0 -0 0 0 1 1 0 0 0 0 0 0 0 0 0 0 0 0 0 0 0 0 -0 -0 -0 -0 0 0 0 0 0 0
0 0 0 0 0 0 0 0 0 0 0 0 0 0 0 0 1 0 0 0 0 0 0 0 0 0 0 0 0 -0 -0 -0 -0 0 0 0 0 0
0 0 0 0 0 0 0 0 0 0 0 -0 -0 0 0 0 0 1 1 1 0 0 0 0 0 0 0 0 0 0 0 0 0 0 0 0 0 0
0 0 0 0 0 -0 0 0 0 0 0 0 0 -0 -0 0 0 1 1 2 1 0 0 1 0 0 0 0 0 0 0 0 0 0 0 0 0 0
0 0 0 0 0 0 0 0 0 0 0 0 0 0 0 0 0 0 1 1 1 0 0 1 0 0 0 0 0 0 0 0 0 0 0 0 0 0
0 0 0 0 0 0 0 0 0 0 0 0 0 0 0 0 0 0 0 1 1 1 0 0 0 0 0 0 0 0 0 0 0 0 0 0 0 0
0 1 0 0 0 0 0 0 0 0 0 0 0 0 0 -0 0 0 0 0 0 0 0 0 0 0 0 0 0 0 0 0 0 0 0 0 0 0
0 0 0 0 0 0 0 0 0 0 0 0 0 0 0 0 0 0 0 0 0 0 0 0 0 0 0 0 0 0 0 0 0 0 0 0 0 0
0 0 0 0 0 0 0 0 0 0 0 0 0 0 0 0 0 0 0 0 0 0 0 0 0 0 0 0 0 0 0 0 0 0 0 0 0 0
0 0 0 0 0 1 0 0 0 0 0 0 0 0 0 0 0 0 0 0 0 0 0 0 0 0 0 0 0 0 0 0 0 0 0 0 0 0
0 0 0 0 0 1 1 0 0 0 0 0 0 0 0 0 0 0 0 0 0 0 0 0 0 0 0 0 0 0 0 0 0 0 0 0 0 0
0 0 0 0 1 1 1 1 1 0 0 0 0 0 0 0 0 0 0 0 0 0 0 0 0 0 0 0 0 0 0 0 0 0 0 0 0 0
0 0 0 0 0 0 1 1 1 0 0 0 0 0 0 0 0 0 0 0 0 0 0 0 0 0 0 0 0 0 0 0 0 0 0 0 0 0
0 0 0 0 0 0 0 0 1 1 1 0 0 0 0 0 0 0 0 0 0 0 0 0 0 0 0 0 0 0 0 0 0 0 0 0 0 0
0 0 0 0 0 0 0 0 0 0 0 0 0 1 1 0 0 0 0 0 0 0 0 0 0 0 0 0 0 0 0 0 0 0 0 0 0 0
Wind_Speed_500mb
43 39 41 40 37 39 35 33 36 42 43 31 21 14 13 10 8 11 14 15 22 32 48 55 66 69 68 70 67 63 55 52 49 49 49 48 48 48
42 43 40 38 38 40 32 31 32 31 38 31 25 24 25 20 16 15 14 15 15 28 39 53 56 66 74 76 75 71 66 60 57 55 53 52 52 51
43 45 47 41 38 35 33 32 34 33 39 33 29 24 26 22 17 20 19 17 14 15 31 43 53 56 60 65 71 77 75 67 64 62 60 58 57 56
44 44 48 44 45 41 41 38 34 32 35 33 30 27 26 25 22 23 23 19 18 16 16 29 36 45 51 57 61 70 76 73 68 67 65 63 61 60
43 46 46 46 49 50 51 45 38 33 33 37 31 28 25 26 22 21 23 20 17 16 13 9 16 23 39 50 52 59 70 78 77 74 73 72 71 71
44 48 51 48 48 52 50 51 43 35 35 36 32 28 27 24 24 22 23 23 19 18 16 13 8 20 20 34 42 51 59 66 74 79 81 84 85 84
61 59 52 51 49 50 48 45 45 36 39 33 33 31 28 28 28 25 25 22 24 25 23 24 21 23 25 26 30 34 43 52 63 66 68 71 74 77
60 53 45 41 38 36 33 42 46 41 39 32 32 34 27 22 25 25 24 27 31 20 24 23 26 27 26 32 33 36 36 40 40 44 51 57 62 64
25 35 40 36 30 30 31 36 41 35 34 30 36 36 33 20 20 26 29 30 33 32 35 39 34 32 30 27 26 30 34 36 37 36 40 46 53 57
33 39 25 16 14 18 26 34 38 48 40 39 39 37 36 28 26 27 27 34 35 37 38 50 43 44 37 35 30 33 36 37 40 41 41 39 39 41
32 32 20 14 11 18 29 35 41 47 33 27 26 25 20 27 32 38 42 37 36 37 40 47 52 51 46 41 43 42 46 46 48 52 52 50 47 43
39 29 27 25 32 24 24 16 31 45 29 28 33 23 21 28 30 36 42 48 46 32 35 46 45 39 47 44 35 42 43 45 47 45 42 48 54 53
52 42 32 32 26 29 33 34 38 43 39 36 38 33 32 31 36 32 42 49 49 46 38 41 49 50 42 42 40 38 43 46 39 38 44 44 43 50
58 54 51 44 38 32 31 27 19 19 26 38 48 52 44 42 43 45 34 45 52 57 44 40 47 51 46 45 44 46 49 55 51 42 32 28 26 31
60 60 59 58 51 45 41 38 26 20 24 31 37 42 54 56 51 53 56 50 48 50 36 36 42 44 45 44 46 47 44 49 50 49 33 30 32 35
59 60 63 65 65 61 53 50 45 33 30 27 35 44 50 52 54 47 48 50 50 51 42 40 39 43 37 33 34 33 29 29 31 29 40 36 29 28
45 49 55 56 58 65 65 61 57 46 31 25 36 45 51 53 56 47 44 47 53 51 48 41 40 36 32 30 28 22 22 27 29 29 26 23 20 16
61 64 69 63 62 56 50 57 58 54 39 33 38 46 51 50 52 47 44 47 51 54 53 46 38 34 31 27 25 25 27 30 26 21 18 17 18 17
63 60 63 67 72 68 59 48 58 60 45 44 48 48 52 48 51 47 48 45 47 48 44 41 39 37 35 33 28 26 25 25 23 23 22 20 17 13
65 59 63 58 62 70 70 64 57 58 66 67 64 55 57 51 51 51 45 45 42 38 42 39 41 38 37 32 33 28 26 22 26 28 25 23 19 18
60 62 58 61 60 54 58 60 60 64 67 68 63 60 60 56 53 53 47 41 38 39 42 40 34 32 32 30 28 25 28 29 26 21 24 27 26 24
54 57 55 48 47 47 44 46 49 51 54 63 66 67 65 58 54 51 52 47 45 42 37 36 36 36 38 36 29 27 34 29 27 27 27 24 21 20
52 50 39 44 48 50 51 52 55 57 61 64 63 63 61 56 52 51 54 49 52 48 44 43 44 41 37 32 29 32 31 33 33 25 19 16 16 16
Wind_Direction_500mb
278 277 273 276 271 271 275 268 276 292 307 316 300 317 319 305 283 291 303 298 267 254 230 226 226 228 231 231 232 235 238 241 239 238 239 241 243 245
273 274 270 273 273 265 266 270 274 279 283 297 303 297 303 293 272 283 303 310 299 254 244 235 233 231 231 233 236 235 235 238 242 242 242 243 244 245
264 270 269 267 265 265 266 261 259 270 275 283 293 291 294 298 277 279 280 296 308 289 249 235 235 236 234 233 235 236 232 235 238 242 244 246 248 250
269 267 270 270 272 270 264 258 259 260 266 278 287 295 286 294 284 280 276 279 294 310 298 241 241 230 233 234 239 234 230 233 238 241 243 246 249 253
286 280 277 273 273 268 267 262 252 252 261 268 280 290 284 284 283 275 281 270 278 275 312 293 243 217 235 237 237 236 237 238 240 241 242 244 249 253
291 289 290 280 278 280 270 267 262 256 258 267 277 283 282 275 275 271 283 278 276 269 265 264 254 226 250 245 245 242 242 244 246 248 250 253 256 257
290 291 283 276 278 280 275 270 263 266 255 260 269 275 277 268 272 282 278 280 272 261 256 257 258 259 256 253 256 247 248 250 248 247 249 252 254 254
287 286 282 279 282 267 272 261 257 250 257 253 261 264 270 276 275 276 274 279 285 273 264 263 265 266 277 278 270 261 259 255 248 253 258 259 259 260
303 317 280 267 268 266 270 262 254 257 265 263 258 258 264 264 269 264 270 278 283 287 283 280 273 267 274 282 267 258 256 256 258 255 256 258 257 256
306 326 308 275 265 273 284 277 269 261 261 263 266 263 257 254 258 259 267 270 277 284 291 287 286 281 282 275 270 258 250 250 251 253 254 254 255 257
311 321 306 280 328 275 264 275 282 272 265 268 278 273 273 261 259 250 250 258 269 279 290 293 292 291 284 279 267 253 250 253 253 251 252 252 246 247
292 298 291 274 283 257 267 301 305 284 264 280 263 259 279 282 269 262 263 259 255 285 285 283 287 287 286 285 273 255 256 260 254 246 247 256 250 244
284 286 287 284 278 268 256 254 250 264 270 274 269 263 257 264 264 283 269 263 255 252 268 273 278 278 278 279 281 280 273 260 257 262 259 249 253 243
275 278 284 289 279 270 263 256 260 295 306 295 289 290 290 279 273 275 286 258 262 264 264 260 269 274 277 279 280 281 275 262 262 257 263 256 253 250
269 270 274 279 279 272 269 266 252 271 288 304 314 316 302 293 281 274 273 261 264 259 260 264 270 276 274 275 281 282 278 265 269 253 248 264 271 274
268 267 268 266 269 270 266 264 260 260 271 295 311 312 313 305 289 282 277 275 261 264 269 272 265 269 271 271 272 274 268 263 264 264 254 257 272 274
274 265 266 266 269 265 261 262 255 256 263 292 307 309 309 310 300 291 281 275 266 264 262 260 257 256 254 262 258 258 251 249 257 255 243 242 244 233
269 265 264 264 265 267 267 258 252 251 254 283 295 301 301 305 301 287 287 284 276 267 263 248 238 233 241 248 249 249 251 249 238 241 231 218 197 199
268 270 268 265 263 264 268 269 254 250 251 280 285 289 293 292 296 284 284 283 275 266 249 230 229 229 229 230 237 241 242 233 225 208 206 215 230 225
264 271 270 271 263 260 262 266 265 256 254 263 274 277 281 283 285 278 279 276 277 255 233 226 222 224 234 243 237 231 222 218 225 220 225 230 219 225
264 266 271 264 264 262 256 255 256 256 257 256 259 265 269 272 276 273 266 263 255 245 229 222 222 225 225 216 211 216 217 226 214 226 242 247 243 241
259 263 265 264 254 257 256 257 258 258 255 251 252 256 260 263 264 269 253 249 246 239 224 227 223 211 208 211 215 220 208 215 227 226 222 231 250 263
261 263 264 265 264 263 260 259 255 254 248 245 247 250 254 255 261 266 240 242 244 230 224 207 205 201 202 204 203 199 204 209 206 204 215 228 250 269
Wind_Speed_850mb
43 39 41 40 37 39 35 33 36 42 43 31 21 14 13 10 8 11 14 15 22 32 48 55 66 69 68 70 67 63 55 52 49 49 49 48 48 48
42 43 40 38 38 40 32 31 32 31 38 31 25 24 25 20 16 15 14 15 15 28 39 53 56 66 74 76 75 71 66 60 57 55 53 52 52 51
43 45 47 41 38 35 33 32 34 33 39 33 29 24 26 22 17 20 19 17 14 15 31 43 53 56 60 65 71 77 75 67 64 62 60 58 57 56
44 44 48 44 45 41 41 38 34 32 35 33 30 27 26 25 22 23 23 19 18 16 16 29 36 45 51 57 61 70 76 73 68 67 65 63 61 60
43 46 46 46 49 50 51 45 38 33 33 37 31 28 25 26 22 21 23 20 17 16 13 9 16 23 39 50 52 59 70 78 77 74 73 72 71 71
44 48 51 48 48 52 50 51 43 35 35 36 32 28 27 24 24 22 23 23 19 18 16 13 8 20 20 34 42 51 59 66 74 79 81 84 85 84
61 59 52 51 49 50 48 45 45 36 39 33 33 31 28 28 28 25 25 22 24 25 23 24 21 23 25 26 30 34 43 52 63 66 68 71 74 77
60 53 45 41 38 36 33 42 46 41 39 32 32 34 27 22 25 25 24 27 31 20 24 23 26 27 26 32 33 36 36 40 40 44 51 57 62 64
25 35 40 36 30 30 31 36 41 35 34 30 36 36 33 20 20 26 29 30 33 32 35 39 34 32 30 27 26 30 34 36 37 36 40 46 53 57
33 39 25 16 14 18 26 34 38 48 40 39 39 37 36 28 26 27 27 34 35 37 38 50 43 44 37 35 30 33 36 37 40 41 41 39 39 41
32 32 20 14 11 18 29 35 41 47 33 27 26 25 20 27 32 38 42 37 36 37 40 47 52 51 46 41 43 42 46 46 48 52 52 50 47 43
39 29 27 25 32 24 24 16 31 45 29 28 33 23 21 28 30 36 42 48 46 32 35 46 45 39 47 44 35 42 43 45 47 45 42 48 54 53
52 42 32 32 26 29 33 34 38 43 39 36 38 33 32 31 36 32 42 49 49 46 38 41 49 50 42 42 40 38 43 46 39 38 44 44 43 50
58 54 51 44 38 32 31 27 19 19 26 38 48 52 44 42 43 45 34 45 52 57 44 40 47 51 46 45 44 46 49 55 51 42 32 28 26 31
60 60 59 58 51 45 41 38 26 20 24 31 37 42 54 56 51 53 56 50 48 50 36 36 42 44 45 44 46 47 44 49 50 49 33 30 32 35
59 60 63 65 65 61 53 50 45 33 30 27 35 44 50 52 54 47 48 50 50 51 42 40 39 43 37 33 34 33 29 29 31 29 40 36 29 28
45 49 55 56 58 65 65 61 57 46 31 25 36 45 51 53 56 47 44 47 53 51 48 41 40 36 32 30 28 22 22 27 29 29 26 23 20 16
61 64 69 63 62 56 50 57 58 54 39 33 38 46 51 50 52 47 44 47 51 54 53 46 38 34 31 27 25 25 27 30 26 21 18 17 18 17
63 60 63 67 72 68 59 48 58 60 45 44 48 48 52 48 51 47 48 45 47 48 44 41 39 37 35 33 28 26 25 25 23 23 22 20 17 13
65 59 63 58 62 70 70 64 57 58 66 67 64 55 57 51 51 51 45 45 42 38 42 39 41 38 37 32 33 28 26 22 26 28 25 23 19 18
60 62 58 61 60 54 58 60 60 64 67 68 63 60 60 56 53 53 47 41 38 39 42 40 34 32 32 30 28 25 28 29 26 21 24 27 26 24
54 57 55 48 47 47 44 46 49 51 54 63 66 67 65 58 54 51 52 47 45 42 37 36 36 36 38 36 29 27 34 29 27 27 27 24 21 20
52 50 39 44 48 50 51 52 55 57 61 64 63 63 61 56 52 51 54 49 52 48 44 43 44 41 37 32 29 32 31 33 33 25 19 16 16 16
Wind_Direction_850mb
278 277 273 276 271 271 275 268 276 292 307 316 300 317 319 305 283 291 303 298 267 254 230 226 226 228 231 231 232 235 238 241 239 238 239 241 243 245
273 274 270 273 273 265 266 270 274 279 283 297 303 297 303 293 272 283 303 310 299 254 244 235 233 231 231 233 236 235 235 238 242 242 242 243 244 245
264 270 269 267 265 265 266 261 259 270 275 283 293 291 294 298 277 279 280 296 308 289 249 235 235 236 234 233 235 236 232 235 238 242 244 246 248 250
269 267 270 270 272 270 264 258 259 260 266 278 287 295 286 294 284 280 276 279 294 310 298 241 241 230 233 234 239 234 230 233 238 241 243 246 249 253
286 280 277 273 273 268 267 262 252 252 261 268 280 290 284 284 283 275 281 270 278 275 312 293 243 217 235 237 237 236 237 238 240 241 242 244 249 253
291 289 290 280 278 280 270 267 262 256 258 267 277 283 282 275 275 271 283 278 276 269 265 264 254 226 250 245 245 242 242 244 246 248 250 253 256 257
290 291 283 276 278 280 275 270 263 266 255 260 269 275 277 268 272 282 278 280 272 261 256 257 258 259 256 253 256 247 248 250 248 247 249 252 254 254
287 286 282 279 282 267 272 261 257 250 257 253 261 264 270 276 275 276 274 279 285 273 264 263 265 266 277 278 270 261 259 255 248 253 258 259 259 260
303 317 280 267 268 266 270 262 254 257 265 263 258 258 264 264 269 264 270 278 283 287 283 280 273 267 274 282 267 258 256 256 258 255 256 258 257 256
306 326 308 275 265 273 284 277 269 261 261 263 266 263 257 254 258 259 267 270 277 284 291 287 286 281 282 275 270 258 250 250 251 253 254 254 255 257
311 321 306 280 328 275 264 275 282 272 265 268 278 273 273 261 259 250 250 258 269 279 290 293 292 291 284 279 267 253 250 253 253 251 252 252 246 247
292 298 291 274 283 257 267 301 305 284 264 280 263 259 279 282 269 262 263 259 255 285 285 283 287 287 286 285 273 255 256 260 254 246 247 256 250 244
284 286 287 284 278 268 256 254 250 264 270 274 269 263 257 264 264 283 269 263 255 252 268 273 278 278 278 279 281 280 273 260 257 262 259 249 253 243
275 278 284 289 279 270 263 256 260 295 306 295 289 290 290 279 273 275 286 258 262 264 264 260 269 274 277 279 280 281 275 262 262 257 263 256 253 250
269 270 274 279 279 272 269 266 252 271 288 304 314 316 302 293 281 274 273 261 264 259 260 264 270 276 274 275 281 282 278 265 269 253 248 264 271 274
268 267 268 266 269 270 266 264 260 260 271 295 311 312 313 305 289 282 277 275 261 264 269 272 265 269 271 271 272 274 268 263 264 264 254 257 272 274
274 265 266 266 269 265 261 262 255 256 263 292 307 309 309 310 300 291 281 275 266 264 262 260 257 256 254 262 258 258 251 249 257 255 243 242 244 233
269 265 264 264 265 267 267 258 252 251 254 283 295 301 301 305 301 287 287 284 276 267 263 248 238 233 241 248 249 249 251 249 238 241 231 218 197 199
268 270 268 265 263 264 268 269 254 250 251 280 285 289 293 292 296 284 284 283 275 266 249 230 229 229 229 230 237 241 242 233 225 208 206 215 230 225
264 271 270 271 263 260 262 266 265 256 254 263 274 277 281 283 285 278 279 276 277 255 233 226 222 224 234 243 237 231 222 218 225 220 225 230 219 225
264 266 271 264 264 262 256 255 256 256 257 256 259 265 269 272 276 273 266 263 255 245 229 222 222 225 225 216 211 216 217 226 214 226 242 247 243 241
259 263 265 264 254 257 256 257 258 258 255 251 252 256 260 263 264 269 253 249 246 239 224 227 223 211 208 211 215 220 208 215 227 226 222 231 250 263
261 263 264 265 264 263 260 259 255 254 248 245 247 250 254 255 261 266 240 242 244 230 224 207 205 201 202 204 203 199 204 209 206 204 215 228 250 269